Torna al catalogo

FENGYUN 1C DEB

AttivoSSO
NORAD 31387·DEBRIS·🇨🇳 China

Lanciato May 10, 1999 da Taiyuan Satellite Launch Center

Loading…

Prossimi Passaggi (prossime 24 ore)

TLE

AggiornatoSource: Space-Track

Epoca: Sep 14, 2026, 11:40 UTC

1 31387U 99025BST 26257.48659294  .00000289  00000-0  13444-3 0  9994
2 31387  99.1312 147.6819 0241786 114.6726 247.9830 14.13850288  1846

Traccia FENGYUN 1C DEB in tempo reale con AllMySat

Download on the App Store